Time,TemperatureF,DewpointF,PressureIn,WindDirection,WindDirectionDegrees,WindSpeedMPH,WindSpeedGustMPH,Humidity,HourlyPrecipIn,Conditions,Clouds,dailyrainin,SoftwareType,DateUTC
2013-09-28 00:01:00,71.2,57.9,29.81,East,90,4.0,6.0,63,0.00,,,0.00,meteohub,2013-09-28 05:01:00,
2013-09-28 00:06:00,71.2,57.9,29.81,East,90,4.0,6.0,63,0.00,,,0.00,meteohub,2013-09-28 05:06:00,
2013-09-28 00:11:00,70.9,57.7,29.81,SSE,158,7.0,7.0,63,0.00,,,0.00,meteohub,2013-09-28 05:11:00,
2013-09-28 00:16:00,71.2,57.9,29.81,ENE,68,8.0,8.0,63,0.00,,,0.00,meteohub,2013-09-28 05:16:00,
2013-09-28 00:21:00,71.2,57.9,29.80,NE,45,5.0,8.0,63,0.00,,,0.00,meteohub,2013-09-28 05:21:00,
2013-09-28 00:26:00,71.2,57.9,29.80,NE,45,4.0,8.0,63,0.00,,,0.00,meteohub,2013-09-28 05:26:00,
2013-09-28 00:31:00,71.1,57.7,29.80,East,90,5.0,8.0,63,0.00,,,0.00,meteohub,2013-09-28 05:31:00,
2013-09-28 00:36:00,70.9,57.7,29.79,ESE,113,6.0,8.0,63,0.00,,,0.00,meteohub,2013-09-28 05:36:00,
2013-09-28 00:41:00,70.9,58.1,29.79,NE,45,5.0,8.0,64,0.00,,,0.00,meteohub,2013-09-28 05:41:00,
2013-09-28 00:46:00,71.1,57.7,29.79,SE,135,6.0,7.0,63,0.00,,,0.00,meteohub,2013-09-28 05:46:00,
2013-09-28 00:51:00,70.9,57.7,29.79,NE,45,4.0,7.0,63,0.00,,,0.00,meteohub,2013-09-28 05:51:00,
2013-09-28 00:57:00,70.7,57.6,29.80,NE,45,10.0,10.0,63,0.00,,,0.00,meteohub,2013-09-28 05:57:00,
2013-09-28 01:02:00,70.9,57.7,29.80,East,90,4.0,10.0,63,0.00,,,0.00,meteohub,2013-09-28 06:02:00,
2013-09-28 01:07:00,70.9,57.7,29.80,East,90,4.0,10.0,63,0.00,,,0.00,meteohub,2013-09-28 06:07:00,
2013-09-28 01:12:00,70.9,57.7,29.79,WSW,248,4.0,10.0,63,0.00,,,0.00,meteohub,2013-09-28 06:12:00,
2013-09-28 01:17:00,70.9,57.7,29.79,SE,135,7.0,7.0,63,0.00,,,0.00,meteohub,2013-09-28 06:17:00,
2013-09-28 01:22:00,71.2,57.6,29.79,East,90,7.0,7.0,62,0.00,,,0.00,meteohub,2013-09-28 06:22:00,
2013-09-28 01:27:00,71.1,57.4,29.79,East,90,8.0,8.0,62,0.00,,,0.00,meteohub,2013-09-28 06:27:00,
2013-09-28 01:32:00,71.2,57.0,29.80,NE,45,6.0,11.0,61,0.00,,,0.00,meteohub,2013-09-28 06:32:00,
2013-09-28 01:37:00,71.2,57.0,29.79,ESE,113,6.0,11.0,61,0.00,,,0.00,meteohub,2013-09-28 06:37:00,
2013-09-28 01:42:00,71.4,57.2,29.80,SE,135,7.0,11.0,61,0.00,,,0.00,meteohub,2013-09-28 06:42:00,
2013-09-28 01:47:00,71.2,57.0,29.80,NE,45,6.0,11.0,61,0.00,,,0.00,meteohub,2013-09-28 06:47:00,
2013-09-28 01:52:00,71.4,57.2,29.79,ESE,113,6.0,11.0,61,0.00,,,0.00,meteohub,2013-09-28 06:52:00,
2013-09-28 01:57:00,71.4,57.2,29.79,East,90,6.0,9.0,61,0.00,,,0.00,meteohub,2013-09-28 06:57:00,
2013-09-28 02:02:00,71.4,57.2,29.79,SSE,158,4.0,13.0,61,0.00,,,0.00,meteohub,2013-09-28 07:02:00,
2013-09-28 02:07:00,71.6,57.4,29.79,SE,135,9.0,13.0,61,0.00,,,0.00,meteohub,2013-09-28 07:07:00,
2013-09-28 02:13:00,71.6,57.4,29.79,SE,135,8.0,13.0,61,0.00,,,0.00,meteohub,2013-09-28 07:13:00,
2013-09-28 02:18:00,71.8,57.2,29.78,South,180,8.0,11.0,60,0.00,,,0.00,meteohub,2013-09-28 07:18:00,
2013-09-28 02:23:00,72.0,57.4,29.79,SSE,158,8.0,12.0,60,0.00,,,0.00,meteohub,2013-09-28 07:23:00,
2013-09-28 02:28:00,72.0,57.4,29.79,SE,135,8.0,15.0,60,0.00,,,0.00,meteohub,2013-09-28 07:28:00,
2013-09-28 02:33:00,72.0,57.4,29.79,East,90,8.0,15.0,60,0.00,,,0.00,meteohub,2013-09-28 07:33:00,
2013-09-28 02:38:00,72.1,57.6,29.79,NE,45,8.0,15.0,60,0.00,,,0.00,meteohub,2013-09-28 07:38:00,
2013-09-28 02:43:00,72.1,57.6,29.79,SE,135,7.0,13.0,60,0.00,,,0.00,meteohub,2013-09-28 07:43:00,
2013-09-28 02:48:00,72.1,57.6,29.78,South,180,11.0,13.0,60,0.00,,,0.00,meteohub,2013-09-28 07:48:00,
2013-09-28 02:53:00,72.1,57.6,29.78,ESE,113,8.0,11.0,60,0.00,,,0.00,meteohub,2013-09-28 07:53:00,
2013-09-28 02:58:00,72.3,57.7,29.78,ENE,68,9.0,11.0,60,0.00,,,0.00,meteohub,2013-09-28 07:58:00,
2013-09-28 03:03:00,72.0,57.4,29.78,NNE,23,7.0,11.0,60,0.00,,,0.00,meteohub,2013-09-28 08:03:00,
2013-09-28 03:08:00,72.3,57.7,29.78,NE,45,7.0,11.0,60,0.00,,,0.00,meteohub,2013-09-28 08:08:00,
2013-09-28 03:13:00,72.3,57.7,29.78,East,90,9.0,11.0,60,0.00,,,0.00,meteohub,2013-09-28 08:13:00,
2013-09-28 03:18:00,72.5,57.4,29.78,SE,135,8.0,11.0,59,0.00,,,0.00,meteohub,2013-09-28 08:18:00,
2013-09-28 03:23:00,72.3,57.2,29.78,South,180,15.0,15.0,59,0.00,,,0.00,meteohub,2013-09-28 08:23:00,
2013-09-28 03:28:00,72.7,57.6,29.78,North,0,8.0,15.0,59,0.00,,,0.00,meteohub,2013-09-28 08:28:00,
2013-09-28 03:34:00,72.9,57.2,29.79,South,180,10.0,15.0,58,0.00,,,0.00,meteohub,2013-09-28 08:34:00,
2013-09-28 03:39:00,72.9,57.2,29.78,South,180,8.0,15.0,58,0.00,,,0.00,meteohub,2013-09-28 08:39:00,
2013-09-28 03:44:00,73.0,57.4,29.78,NE,45,10.0,13.0,58,0.00,,,0.00,meteohub,2013-09-28 08:44:00,
2013-09-28 03:49:00,73.2,57.0,29.78,SE,135,8.0,13.0,57,0.00,,,0.00,meteohub,2013-09-28 08:49:00,
2013-09-28 03:54:00,73.4,57.2,29.78,SE,135,6.0,11.0,57,0.00,,,0.00,meteohub,2013-09-28 08:54:00,
2013-09-28 03:59:00,73.6,56.8,29.78,East,90,11.0,11.0,56,0.00,,,0.00,meteohub,2013-09-28 08:59:00,
2013-09-28 04:04:00,73.6,56.8,29.78,NE,45,13.0,13.0,56,0.00,,,0.00,meteohub,2013-09-28 09:04:00,
2013-09-28 04:09:00,73.6,56.8,29.78,East,90,11.0,13.0,56,0.00,,,0.00,meteohub,2013-09-28 09:09:00,
2013-09-28 04:14:00,73.6,56.8,29.78,WNW,293,9.0,13.0,56,0.00,,,0.00,meteohub,2013-09-28 09:14:00,
2013-09-28 04:19:00,73.6,56.8,29.78,East,90,9.0,16.0,56,0.00,,,0.00,meteohub,2013-09-28 09:19:00,
2013-09-28 04:24:00,73.6,56.8,29.77,East,90,8.0,16.0,56,0.00,,,0.00,meteohub,2013-09-28 09:24:00,
2013-09-28 04:29:00,73.4,56.7,29.77,East,90,8.0,16.0,56,0.00,,,0.00,meteohub,2013-09-28 09:29:00,
2013-09-28 04:34:00,73.2,56.7,29.77,NE,45,5.0,15.0,56,0.00,,,0.00,meteohub,2013-09-28 09:34:00,
2013-09-28 04:39:00,73.0,56.8,29.78,SE,135,8.0,15.0,57,0.00,,,0.00,meteohub,2013-09-28 09:39:00,
2013-09-28 04:44:00,72.9,56.7,29.77,SE,135,11.0,15.0,57,0.00,,,0.00,meteohub,2013-09-28 09:44:00,
2013-09-28 04:49:00,72.9,57.2,29.78,NE,45,7.0,15.0,58,0.00,,,0.00,meteohub,2013-09-28 09:49:00,
2013-09-28 04:54:00,72.7,57.0,29.78,SSE,158,11.0,15.0,58,0.00,,,0.00,meteohub,2013-09-28 09:54:00,
2013-09-28 04:59:00,72.5,56.8,29.77,East,90,15.0,15.0,58,0.00,,,0.00,meteohub,2013-09-28 09:59:00,
2013-09-28 05:05:00,72.5,56.8,29.77,NE,45,8.0,15.0,58,0.00,,,0.00,meteohub,2013-09-28 10:05:00,
2013-09-28 05:10:00,72.5,56.8,29.77,SE,135,5.0,15.0,58,0.00,,,0.00,meteohub,2013-09-28 10:10:00,
2013-09-28 05:15:00,72.3,57.2,29.77,ESE,113,11.0,15.0,59,0.00,,,0.00,meteohub,2013-09-28 10:15:00,
2013-09-28 05:20:00,72.3,57.2,29.77,ESE,113,9.0,15.0,59,0.00,,,0.00,meteohub,2013-09-28 10:20:00,
2013-09-28 05:25:00,72.3,57.2,29.77,ESE,113,9.0,14.0,59,0.00,,,0.00,meteohub,2013-09-28 10:25:00,
2013-09-28 05:30:00,72.3,57.2,29.77,East,90,11.0,14.0,59,0.00,,,0.00,meteohub,2013-09-28 10:30:00,
2013-09-28 05:35:00,72.1,57.0,29.77,East,90,9.0,13.0,59,0.00,,,0.00,meteohub,2013-09-28 10:35:00,
2013-09-28 05:40:00,72.1,57.0,29.77,NE,45,8.0,13.0,59,0.00,,,0.00,meteohub,2013-09-28 10:40:00,
2013-09-28 05:45:00,72.1,57.0,29.77,SE,135,9.0,14.0,59,0.00,,,0.00,meteohub,2013-09-28 10:45:00,
2013-09-28 05:50:00,72.0,57.4,29.77,South,180,8.0,14.0,60,0.00,,,0.00,meteohub,2013-09-28 10:50:00,
2013-09-28 05:55:00,71.8,57.2,29.76,East,90,12.0,14.0,60,0.00,,,0.00,meteohub,2013-09-28 10:55:00,
2013-09-28 06:00:00,71.8,57.6,29.77,SE,135,8.0,14.0,61,0.00,,,0.00,meteohub,2013-09-28 11:00:00,
2013-09-28 06:05:00,71.8,57.6,29.76,SE,135,8.0,12.0,61,0.00,,,0.00,meteohub,2013-09-28 11:05:00,
2013-09-28 06:10:00,71.6,57.4,29.77,NE,45,8.0,12.0,61,0.00,,,0.00,meteohub,2013-09-28 11:10:00,
2013-09-28 06:15:00,71.6,57.4,29.76,WNW,293,11.0,12.0,61,0.00,,,0.00,meteohub,2013-09-28 11:15:00,
2013-09-28 06:20:00,71.6,57.4,29.77,NE,45,8.0,12.0,61,0.00,,,0.00,meteohub,2013-09-28 11:20:00,
2013-09-28 06:25:00,71.6,57.4,29.77,SE,135,8.0,12.0,61,0.00,,,0.00,meteohub,2013-09-28 11:25:00,
2013-09-28 06:30:00,71.6,57.4,29.77,ENE,68,7.0,12.0,61,0.00,,,0.00,meteohub,2013-09-28 11:30:00,
2013-09-28 06:35:00,71.6,57.4,29.77,NNE,23,6.0,11.0,61,0.00,,,0.00,meteohub,2013-09-28 11:35:00,
2013-09-28 06:41:00,71.6,57.4,29.77,SW,225,10.0,11.0,61,0.00,,,0.00,meteohub,2013-09-28 11:41:00,
2013-09-28 06:46:00,71.6,57.9,29.77,SSE,158,7.0,11.0,62,0.00,,,0.00,meteohub,2013-09-28 11:46:00,
2013-09-28 06:51:00,71.6,57.9,29.77,SSE,158,8.0,12.0,62,0.00,,,0.00,meteohub,2013-09-28 11:51:00,
2013-09-28 06:56:00,71.6,57.9,29.77,SSW,203,8.0,12.0,62,0.00,,,0.00,meteohub,2013-09-28 11:56:00,
2013-09-28 07:01:00,71.6,57.9,29.77,SE,135,9.0,11.0,62,0.00,,,0.00,meteohub,2013-09-28 12:01:00,
2013-09-28 07:06:00,71.6,57.9,29.77,SE,135,9.0,11.0,62,0.00,,,0.00,meteohub,2013-09-28 12:06:00,
2013-09-28 07:11:00,71.4,59.5,29.77,SE,135,8.0,9.0,66,0.00,,,0.00,meteohub,2013-09-28 12:11:00,
2013-09-28 07:16:00,70.7,59.5,29.78,West,270,3.0,9.0,68,0.00,,,0.00,meteohub,2013-09-28 12:16:00,
2013-09-28 07:21:00,70.3,60.1,29.81,West,270,5.0,11.0,70,0.00,,,0.00,meteohub,2013-09-28 12:21:00,
2013-09-28 07:26:00,70.2,60.6,29.81,West,270,5.0,11.0,72,0.00,,,0.00,meteohub,2013-09-28 12:26:00,
2013-09-28 07:31:00,70.3,60.4,29.81,West,270,2.0,9.0,71,0.00,,,0.00,meteohub,2013-09-28 12:31:00,
2013-09-28 07:36:00,70.3,60.4,29.82,SW,225,5.0,9.0,71,0.00,,,0.00,meteohub,2013-09-28 12:36:00,
2013-09-28 07:41:00,70.5,60.6,29.81,NW,315,3.0,9.0,71,0.00,,,0.00,meteohub,2013-09-28 12:41:00,
2013-09-28 07:46:00,70.5,60.6,29.81,SW,225,2.0,9.0,71,0.00,,,0.00,meteohub,2013-09-28 12:46:00,
2013-09-28 07:52:00,70.3,60.8,29.82,West,270,4.0,5.0,72,0.00,,,0.00,meteohub,2013-09-28 12:52:00,
2013-09-28 07:57:00,70.0,61.7,29.82,NW,315,3.0,5.0,75,0.00,,,0.00,meteohub,2013-09-28 12:57:00,
2013-09-28 08:02:00,69.6,61.7,29.81,SW,225,4.0,5.0,76,0.01,,,0.00,meteohub,2013-09-28 13:02:00,
2013-09-28 08:07:00,69.1,62.2,29.82,West,270,5.0,5.0,79,0.01,,,0.01,meteohub,2013-09-28 13:07:00,
2013-09-28 08:12:00,68.4,62.2,29.82,North,0,3.0,7.0,81,0.01,,,0.01,meteohub,2013-09-28 13:12:00,
2013-09-28 08:17:00,68.0,63.3,29.82,NW,315,4.0,7.0,85,0.01,,,0.01,meteohub,2013-09-28 13:17:00,
2013-09-28 08:22:00,67.8,63.9,29.83,NE,45,4.0,5.0,87,0.01,,,0.01,meteohub,2013-09-28 13:22:00,
2013-09-28 08:27:00,67.5,64.0,29.82,East,90,4.0,5.0,89,0.01,,,0.01,meteohub,2013-09-28 13:27:00,
2013-09-28 08:32:00,67.3,64.2,29.81,East,90,4.0,8.0,90,0.01,,,0.01,meteohub,2013-09-28 13:32:00,
2013-09-28 08:37:00,67.1,64.4,29.81,East,90,8.0,8.0,91,0.01,,,0.01,meteohub,2013-09-28 13:37:00,
2013-09-28 08:42:00,66.9,64.8,29.81,East,90,6.0,8.0,93,0.01,,,0.01,meteohub,2013-09-28 13:42:00,
2013-09-28 08:47:00,66.9,65.1,29.81,South,180,7.0,8.0,94,0.01,,,0.01,meteohub,2013-09-28 13:47:00,
2013-09-28 08:52:00,66.9,65.7,29.82,SE,135,5.0,8.0,96,0.01,,,0.01,meteohub,2013-09-28 13:52:00,
2013-09-28 08:57:00,66.9,65.7,29.82,ESE,113,8.0,9.0,96,0.01,,,0.01,meteohub,2013-09-28 13:57:00,
2013-09-28 09:02:00,66.9,65.7,29.82,North,0,4.0,9.0,96,0.00,,,0.01,meteohub,2013-09-28 14:02:00,
2013-09-28 09:07:00,66.9,65.7,29.82,North,0,4.0,9.0,96,0.00,,,0.01,meteohub,2013-09-28 14:07:00,
2013-09-28 09:12:00,66.7,65.8,29.82,East,90,6.0,9.0,97,0.00,,,0.01,meteohub,2013-09-28 14:12:00,
2013-09-28 09:17:00,66.7,66.2,29.83,SE,135,8.0,8.0,98,0.00,,,0.01,meteohub,2013-09-28 14:17:00,
2013-09-28 09:22:00,66.7,66.2,29.83,East,90,5.0,8.0,98,0.00,,,0.01,meteohub,2013-09-28 14:22:00,
2013-09-28 09:27:00,66.7,66.2,29.83,ENE,68,2.0,8.0,98,0.00,,,0.01,meteohub,2013-09-28 14:27:00,
2013-09-28 09:32:00,66.7,66.4,29.84,North,0,2.0,8.0,99,0.00,,,0.01,meteohub,2013-09-28 14:32:00,
2013-09-28 09:37:00,66.9,66.6,29.84,East,90,6.0,7.0,99,0.00,,,0.01,meteohub,2013-09-28 14:37:00,
2013-09-28 09:42:00,67.3,66.9,29.83,East,90,4.0,7.0,99,0.00,,,0.01,meteohub,2013-09-28 14:42:00,
2013-09-28 09:47:00,67.5,67.1,29.84,ESE,113,5.0,9.0,99,0.00,,,0.01,meteohub,2013-09-28 14:47:00,
2013-09-28 09:52:00,67.3,66.9,29.84,SE,135,3.0,9.0,99,0.00,,,0.01,meteohub,2013-09-28 14:52:00,
2013-09-28 09:57:00,67.5,67.1,29.84,West,270,5.0,9.0,99,0.00,,,0.01,meteohub,2013-09-28 14:57:00,
2013-09-28 10:02:00,67.5,67.1,29.85,NW,315,3.0,9.0,99,0.00,,,0.01,meteohub,2013-09-28 15:02:00,
2013-09-28 10:07:00,67.5,67.1,29.86,NW,315,3.0,5.0,99,0.00,,,0.01,meteohub,2013-09-28 15:07:00,
2013-09-28 10:12:00,67.6,67.3,29.86,West,270,3.0,5.0,99,0.00,,,0.01,meteohub,2013-09-28 15:12:00,
2013-09-28 10:17:00,67.5,67.1,29.86,SW,225,6.0,7.0,99,0.00,,,0.01,meteohub,2013-09-28 15:17:00,
2013-09-28 10:22:00,67.6,67.3,29.86,NW,315,3.0,7.0,99,0.00,,,0.01,meteohub,2013-09-28 15:22:00,
2013-09-28 10:27:00,67.8,67.5,29.87,East,90,2.0,6.0,99,0.00,,,0.01,meteohub,2013-09-28 15:27:00,
2013-09-28 10:32:00,68.0,67.6,29.86,NE,45,3.0,6.0,99,0.00,,,0.01,meteohub,2013-09-28 15:32:00,
2013-09-28 10:37:00,68.0,67.6,29.85,NE,45,4.0,7.0,99,0.00,,,0.01,meteohub,2013-09-28 15:37:00,
2013-09-28 10:42:00,68.0,67.6,29.85,NE,45,4.0,7.0,99,0.00,,,0.01,meteohub,2013-09-28 15:42:00,
2013-09-28 10:47:00,68.0,67.6,29.86,NW,315,6.0,6.0,99,0.00,,,0.01,meteohub,2013-09-28 15:47:00,
2013-09-28 10:52:00,68.0,67.6,29.86,NW,315,2.0,6.0,99,0.00,,,0.01,meteohub,2013-09-28 15:52:00,
2013-09-28 10:57:00,68.0,67.6,29.86,ESE,113,4.0,8.0,99,0.00,,,0.01,meteohub,2013-09-28 15:57:00,
2013-09-28 11:02:00,68.0,67.6,29.86,West,270,6.0,8.0,99,0.00,,,0.01,meteohub,2013-09-28 16:02:00,
2013-09-28 11:07:00,68.0,67.6,29.86,West,270,6.0,8.0,99,0.00,,,0.01,meteohub,2013-09-28 16:07:00,
2013-09-28 11:12:00,66.4,64.9,29.88,SW,225,6.0,8.0,95,0.00,,,0.01,meteohub,2013-09-28 16:12:00,
2013-09-28 11:17:00,63.3,60.6,29.88,SW,225,11.0,12.0,91,0.00,,,0.01,meteohub,2013-09-28 16:17:00,
2013-09-28 11:22:00,61.7,59.7,29.88,NW,315,7.0,12.0,93,0.00,,,0.01,meteohub,2013-09-28 16:22:00,
2013-09-28 11:27:00,61.0,59.5,29.89,West,270,6.0,11.0,95,0.00,,,0.01,meteohub,2013-09-28 16:27:00,
2013-09-28 11:32:00,60.8,59.9,29.88,SW,225,6.0,11.0,97,0.00,,,0.01,meteohub,2013-09-28 16:32:00,
2013-09-28 11:37:00,60.6,59.7,29.88,North,0,4.0,11.0,97,0.00,,,0.01,meteohub,2013-09-28 16:37:00,
2013-09-28 11:42:00,60.4,59.5,29.89,West,270,7.0,11.0,97,0.00,,,0.01,meteohub,2013-09-28 16:42:00,
2013-09-28 11:47:00,60.3,59.2,29.90,ESE,113,6.0,11.0,96,0.00,,,0.01,meteohub,2013-09-28 16:47:00,
2013-09-28 11:52:00,59.9,58.8,29.90,West,270,5.0,11.0,96,0.00,,,0.01,meteohub,2013-09-28 16:52:00,
2013-09-28 11:57:00,59.5,58.5,29.91,NW,315,11.0,11.0,96,0.00,,,0.01,meteohub,2013-09-28 16:57:00,
2013-09-28 12:02:00,59.4,58.3,29.91,West,270,8.0,8.0,96,0.00,,,0.01,meteohub,2013-09-28 17:02:00,
2013-09-28 12:07:00,59.4,58.3,29.91,West,270,8.0,11.0,96,0.00,,,0.01,meteohub,2013-09-28 17:07:00,
2013-09-28 12:12:00,59.2,58.1,29.92,West,270,4.0,11.0,96,0.00,,,0.01,meteohub,2013-09-28 17:12:00,
2013-09-28 12:17:00,59.0,57.9,29.92,South,180,5.0,11.0,96,0.00,,,0.01,meteohub,2013-09-28 17:17:00,
2013-09-28 12:22:00,58.8,57.7,29.92,West,270,4.0,11.0,96,0.00,,,0.01,meteohub,2013-09-28 17:22:00,
2013-09-28 12:27:00,58.8,57.7,29.91,SE,135,4.0,11.0,96,0.00,,,0.01,meteohub,2013-09-28 17:27:00,
2013-09-28 12:32:00,58.6,57.6,29.92,West,270,4.0,11.0,96,0.00,,,0.01,meteohub,2013-09-28 17:32:00,
2013-09-28 12:37:00,58.6,57.6,29.93,South,180,5.0,7.0,96,0.00,,,0.01,meteohub,2013-09-28 17:37:00,
2013-09-28 12:42:00,58.5,57.6,29.93,WNW,293,4.0,7.0,97,0.00,,,0.01,meteohub,2013-09-28 17:42:00,
2013-09-28 12:47:00,58.3,57.2,29.93,SSE,158,3.0,9.0,96,0.00,,,0.01,meteohub,2013-09-28 17:47:00,
2013-09-28 12:52:00,58.3,57.4,29.92,NE,45,8.0,9.0,97,0.00,,,0.01,meteohub,2013-09-28 17:52:00,
2013-09-28 12:57:00,58.1,57.2,29.92,North,0,3.0,8.0,97,0.00,,,0.01,meteohub,2013-09-28 17:57:00,
2013-09-28 13:02:00,57.9,57.0,29.92,East,90,5.0,8.0,97,0.00,,,0.01,meteohub,2013-09-28 18:02:00,
2013-09-28 13:07:00,58.1,57.2,29.92,NW,315,3.0,8.0,97,0.00,,,0.01,meteohub,2013-09-28 18:07:00,
2013-09-28 13:12:00,58.1,57.2,29.92,South,180,4.0,8.0,97,0.00,,,0.01,meteohub,2013-09-28 18:12:00,
2013-09-28 13:17:00,58.1,57.2,29.92,SSW,203,5.0,5.0,97,0.00,,,0.01,meteohub,2013-09-28 18:17:00,
2013-09-28 13:22:00,58.1,57.0,29.92,SW,225,6.0,6.0,96,0.00,,,0.01,meteohub,2013-09-28 18:22:00,
2013-09-28 13:27:00,58.1,57.2,29.92,West,270,5.0,6.0,97,0.00,,,0.01,meteohub,2013-09-28 18:27:00,
2013-09-28 13:32:00,57.9,56.8,29.92,NW,315,7.0,7.0,96,0.00,,,0.01,meteohub,2013-09-28 18:32:00,
2013-09-28 13:37:00,57.9,57.0,29.92,SW,225,4.0,7.0,97,0.00,,,0.01,meteohub,2013-09-28 18:37:00,
2013-09-28 13:42:00,57.9,57.0,29.91,West,270,4.0,7.0,97,0.00,,,0.01,meteohub,2013-09-28 18:42:00,
2013-09-28 13:47:00,58.1,57.2,29.92,NW,315,3.0,7.0,97,0.00,,,0.01,meteohub,2013-09-28 18:47:00,
2013-09-28 13:52:00,58.3,57.4,29.92,West,270,4.0,7.0,97,0.00,,,0.01,meteohub,2013-09-28 18:52:00,
2013-09-28 13:57:00,58.5,57.6,29.92,SW,225,2.0,5.0,97,0.00,,,0.01,meteohub,2013-09-28 18:57:00,
2013-09-28 14:02:00,58.6,57.6,29.93,North,0,2.0,5.0,96,0.00,,,0.01,meteohub,2013-09-28 19:02:00,
2013-09-28 14:07:00,58.6,57.6,29.93,North,0,2.0,4.0,96,0.00,,,0.01,meteohub,2013-09-28 19:07:00,
2013-09-28 14:12:00,58.8,57.4,29.93,WSW,248,3.0,4.0,95,0.00,,,0.01,meteohub,2013-09-28 19:12:00,
2013-09-28 14:17:00,59.0,57.2,29.93,NW,315,3.0,4.0,94,0.00,,,0.01,meteohub,2013-09-28 19:17:00,
2013-09-28 14:22:00,59.0,57.0,29.92,SW,225,4.0,4.0,93,0.00,,,0.01,meteohub,2013-09-28 19:22:00,
2013-09-28 14:27:00,59.0,57.0,29.92,SW,225,3.0,4.0,93,0.00,,,0.01,meteohub,2013-09-28 19:27:00,
2013-09-28 14:32:00,59.0,57.0,29.93,West,270,4.0,4.0,93,0.00,,,0.01,meteohub,2013-09-28 19:32:00,
2013-09-28 14:37:00,59.2,57.2,29.93,West,270,2.0,4.0,93,0.00,,,0.01,meteohub,2013-09-28 19:37:00,
2013-09-28 14:42:00,59.4,57.4,29.93,North,0,2.0,4.0,93,0.00,,,0.01,meteohub,2013-09-28 19:42:00,
2013-09-28 14:47:00,59.7,57.7,29.93,West,270,3.0,4.0,93,0.00,,,0.01,meteohub,2013-09-28 19:47:00,
2013-09-28 14:52:00,60.4,58.1,29.93,NW,315,5.0,5.0,92,0.00,,,0.01,meteohub,2013-09-28 19:52:00,
2013-09-28 14:57:00,61.0,58.1,29.93,West,270,2.0,7.0,90,0.00,,,0.01,meteohub,2013-09-28 19:57:00,
2013-09-28 15:02:00,61.5,58.6,29.93,SW,225,2.0,7.0,90,0.00,,,0.01,meteohub,2013-09-28 20:02:00,
2013-09-28 15:07:00,61.5,58.6,29.93,SW,225,2.0,5.0,90,0.00,,,0.01,meteohub,2013-09-28 20:07:00,
2013-09-28 15:12:00,62.6,58.1,29.94,West,270,2.0,4.0,85,0.00,,,0.01,meteohub,2013-09-28 20:12:00,
2013-09-28 15:17:00,62.8,57.9,29.94,West,270,4.0,5.0,84,0.00,,,0.01,meteohub,2013-09-28 20:17:00,
2013-09-28 15:23:00,62.2,56.7,29.94,East,90,2.0,6.0,82,0.00,,,0.01,meteohub,2013-09-28 20:23:00,
2013-09-28 15:28:00,62.1,56.5,29.94,West,270,2.0,6.0,82,0.00,,,0.01,meteohub,2013-09-28 20:28:00,
2013-09-28 15:33:00,62.4,56.8,29.94,SW,225,4.0,6.0,82,0.00,,,0.01,meteohub,2013-09-28 20:33:00,
2013-09-28 15:39:00,63.3,57.4,29.93,NW,315,4.0,6.0,81,0.00,,,0.01,meteohub,2013-09-28 20:39:00,
2013-09-28 15:44:00,64.2,57.9,29.94,West,270,2.0,6.0,80,0.00,,,0.01,meteohub,2013-09-28 20:44:00,
2013-09-28 15:49:00,64.2,57.2,29.94,South,180,2.0,4.0,78,0.00,,,0.01,meteohub,2013-09-28 20:49:00,
2013-09-28 15:54:00,64.2,57.6,29.93,West,270,3.0,4.0,79,0.00,,,0.01,meteohub,2013-09-28 20:54:00,
2013-09-28 15:59:00,65.1,57.4,29.94,SW,225,3.0,4.0,76,0.00,,,0.01,meteohub,2013-09-28 20:59:00,
2013-09-28 16:04:00,65.3,57.6,29.94,SW,225,2.0,4.0,76,0.00,,,0.01,meteohub,2013-09-28 21:04:00,
2013-09-28 16:09:00,65.1,56.7,29.94,West,270,2.0,4.0,74,0.00,,,0.01,meteohub,2013-09-28 21:09:00,
2013-09-28 16:14:00,65.1,57.0,29.94,West,270,2.0,4.0,75,0.00,,,0.01,meteohub,2013-09-28 21:14:00,
2013-09-28 16:19:00,65.1,56.7,29.94,SW,225,2.0,4.0,74,0.00,,,0.01,meteohub,2013-09-28 21:19:00,
2013-09-28 16:24:00,65.1,56.7,29.94,NW,315,2.0,4.0,74,0.00,,,0.01,meteohub,2013-09-28 21:24:00,
2013-09-28 16:29:00,66.0,57.2,29.94,NW,315,2.0,4.0,73,0.00,,,0.01,meteohub,2013-09-28 21:29:00,
2013-09-28 16:34:00,66.9,56.8,29.94,SW,225,4.0,4.0,70,0.00,,,0.01,meteohub,2013-09-28 21:34:00,
2013-09-28 16:39:00,67.5,57.0,29.94,NW,315,3.0,4.0,69,0.00,,,0.01,meteohub,2013-09-28 21:39:00,
2013-09-28 16:44:00,68.0,56.7,29.94,WSW,248,0.0,4.0,67,0.00,,,0.01,meteohub,2013-09-28 21:44:00,
2013-09-28 16:50:00,69.6,57.7,29.94,West,270,2.0,4.0,66,0.00,,,0.01,meteohub,2013-09-28 21:50:00,
2013-09-28 16:55:00,71.1,57.7,29.94,WNW,293,2.0,4.0,63,0.00,,,0.01,meteohub,2013-09-28 21:55:00,
2013-09-28 17:00:00,71.8,56.1,29.94,South,180,1.0,4.0,58,0.00,,,0.01,meteohub,2013-09-28 22:00:00,
2013-09-28 17:06:00,71.8,56.1,29.94,South,180,1.0,4.0,58,0.00,,,0.01,meteohub,2013-09-28 22:06:00,
2013-09-28 17:11:00,70.3,55.8,29.94,North,0,2.0,3.0,60,0.00,,,0.01,meteohub,2013-09-28 22:11:00,
2013-09-28 17:16:00,72.7,56.5,29.94,North,0,2.0,3.0,57,0.00,,,0.01,meteohub,2013-09-28 22:16:00,
2013-09-28 17:21:00,74.5,55.8,29.94,NW,315,3.0,3.0,52,0.00,,,0.01,meteohub,2013-09-28 22:21:00,
2013-09-28 17:26:00,75.2,55.8,29.94,SW,225,2.0,3.0,51,0.00,,,0.01,meteohub,2013-09-28 22:26:00,
2013-09-28 17:31:00,75.6,54.5,29.94,SW,225,2.0,3.0,48,0.00,,,0.01,meteohub,2013-09-28 22:31:00,
2013-09-28 17:37:00,74.5,52.3,29.94,East,90,2.0,4.0,46,0.00,,,0.01,meteohub,2013-09-28 22:37:00,
2013-09-28 17:42:00,73.8,54.0,29.94,West,270,1.0,4.0,50,0.00,,,0.01,meteohub,2013-09-28 22:42:00,
2013-09-28 17:47:00,74.8,54.3,29.94,NE,45,1.0,4.0,49,0.00,,,0.01,meteohub,2013-09-28 22:47:00,
2013-09-28 17:52:00,73.8,54.0,29.94,SW,225,1.0,4.0,50,0.00,,,0.01,meteohub,2013-09-28 22:52:00,
2013-09-28 17:57:00,72.1,53.1,29.95,South,180,2.0,4.0,51,0.00,,,0.01,meteohub,2013-09-28 22:57:00,
2013-09-28 18:02:00,71.6,53.6,29.94,NE,45,0.0,4.0,53,0.00,,,0.01,meteohub,2013-09-28 23:02:00,
2013-09-28 18:07:00,73.8,55.6,29.94,SW,225,1.0,4.0,53,0.00,,,0.01,meteohub,2013-09-28 23:07:00,
2013-09-28 18:12:00,75.0,54.5,29.95,SW,225,0.0,2.0,49,0.00,,,0.01,meteohub,2013-09-28 23:12:00,
2013-09-28 18:17:00,75.2,53.6,29.95,NW,315,2.0,2.0,47,0.00,,,0.01,meteohub,2013-09-28 23:17:00,
2013-09-28 18:22:00,75.0,53.4,29.94,SW,225,1.0,2.0,47,0.00,,,0.01,meteohub,2013-09-28 23:22:00,
2013-09-28 18:27:00,74.3,52.2,29.95,NE,45,2.0,2.0,46,0.00,,,0.01,meteohub,2013-09-28 23:27:00,
2013-09-28 18:32:00,72.0,51.8,29.95,East,90,2.0,2.0,49,0.00,,,0.01,meteohub,2013-09-28 23:32:00,
2013-09-28 18:38:00,71.1,53.1,29.95,East,90,0.0,3.0,53,0.00,,,0.01,meteohub,2013-09-28 23:38:00,
2013-09-28 18:43:00,69.6,52.2,29.95,NW,315,0.0,3.0,54,0.00,,,0.01,meteohub,2013-09-28 23:43:00,
2013-09-28 18:48:00,67.5,52.7,29.95,East,90,0.0,3.0,59,0.00,,,0.01,meteohub,2013-09-28 23:48:00,
2013-09-28 18:53:00,66.0,52.7,29.96,East,90,0.0,3.0,62,0.00,,,0.01,meteohub,2013-09-28 23:53:00,
2013-09-28 18:58:00,64.4,52.9,29.95,East,90,0.0,2.0,66,0.00,,,0.01,meteohub,2013-09-28 23:58:00,
2013-09-28 19:03:00,64.0,52.5,29.95,East,90,0.0,2.0,66,0.00,,,0.01,meteohub,2013-09-29 00:03:00,
2013-09-28 19:08:00,62.6,52.3,29.95,East,90,0.0,2.0,69,0.00,,,0.01,meteohub,2013-09-29 00:08:00,
2013-09-28 19:14:00,61.7,52.2,29.95,East,90,0.0,0.0,71,0.00,,,0.01,meteohub,2013-09-29 00:14:00,
2013-09-28 19:19:00,61.2,52.5,29.96,East,90,0.0,0.0,73,0.00,,,0.01,meteohub,2013-09-29 00:19:00,
2013-09-28 19:24:00,60.6,53.1,29.96,East,90,0.0,0.0,76,0.00,,,0.01,meteohub,2013-09-29 00:24:00,
2013-09-28 19:29:00,60.3,53.1,29.96,East,90,0.0,0.0,77,0.00,,,0.01,meteohub,2013-09-29 00:29:00,
2013-09-28 19:34:00,59.7,52.9,29.96,South,180,0.0,0.0,78,0.00,,,0.01,meteohub,2013-09-29 00:34:00,
2013-09-28 19:39:00,59.7,53.2,29.96,South,180,0.0,0.0,79,0.00,,,0.01,meteohub,2013-09-29 00:39:00,
2013-09-28 19:44:00,59.4,53.6,29.96,South,180,0.0,0.0,81,0.00,,,0.01,meteohub,2013-09-29 00:44:00,
2013-09-28 19:49:00,59.2,53.4,29.97,South,180,0.0,0.0,81,0.00,,,0.01,meteohub,2013-09-29 00:49:00,
2013-09-28 19:55:00,58.8,53.4,29.97,South,180,0.0,0.0,82,0.00,,,0.01,meteohub,2013-09-29 00:55:00,
2013-09-28 20:00:00,58.6,53.4,29.97,South,180,0.0,0.0,83,0.00,,,0.01,meteohub,2013-09-29 01:00:00,
2013-09-28 20:05:00,58.6,53.4,29.97,South,180,0.0,0.0,83,0.00,,,0.01,meteohub,2013-09-29 01:05:00,
2013-09-28 20:10:00,57.6,52.7,29.97,South,180,0.0,0.0,84,0.00,,,0.01,meteohub,2013-09-29 01:10:00,
2013-09-28 20:15:00,57.2,52.3,29.98,South,180,0.0,0.0,84,0.00,,,0.01,meteohub,2013-09-29 01:15:00,
2013-09-28 20:20:00,57.2,52.7,29.98,South,180,0.0,0.0,85,0.00,,,0.01,meteohub,2013-09-29 01:20:00,
2013-09-28 20:25:00,57.0,52.9,29.98,South,180,0.0,0.0,86,0.00,,,0.01,meteohub,2013-09-29 01:25:00,
2013-09-28 20:30:00,56.8,53.1,29.98,South,180,0.0,0.0,87,0.00,,,0.01,meteohub,2013-09-29 01:30:00,
2013-09-28 20:35:00,56.8,53.2,29.98,South,180,0.0,0.0,88,0.00,,,0.01,meteohub,2013-09-29 01:35:00,
2013-09-28 20:40:00,56.8,53.2,29.99,SW,225,0.0,1.0,88,0.00,,,0.01,meteohub,2013-09-29 01:40:00,
2013-09-28 20:45:00,56.5,53.2,29.99,SE,135,1.0,1.0,89,0.00,,,0.01,meteohub,2013-09-29 01:45:00,
2013-09-28 20:50:00,56.3,53.1,29.99,West,270,0.0,2.0,89,0.00,,,0.01,meteohub,2013-09-29 01:50:00,
2013-09-28 20:56:00,56.3,53.4,29.99,West,270,0.0,2.0,90,0.00,,,0.01,meteohub,2013-09-29 01:56:00,
2013-09-28 21:01:00,56.1,53.2,29.99,East,90,0.0,2.0,90,0.00,,,0.01,meteohub,2013-09-29 02:01:00,
2013-09-28 21:06:00,56.1,53.2,29.99,East,90,0.0,1.0,90,0.00,,,0.01,meteohub,2013-09-29 02:06:00,
2013-09-28 21:11:00,55.8,53.2,29.99,East,90,0.0,1.0,91,0.00,,,0.01,meteohub,2013-09-29 02:11:00,
2013-09-28 21:16:00,55.9,53.6,29.99,SW,225,0.0,0.0,92,0.00,,,0.01,meteohub,2013-09-29 02:16:00,
2013-09-28 21:21:00,56.1,53.8,30.00,West,270,0.0,0.0,92,0.00,,,0.01,meteohub,2013-09-29 02:21:00,
2013-09-28 21:26:00,55.9,53.4,30.00,West,270,0.0,2.0,91,0.00,,,0.01,meteohub,2013-09-29 02:26:00,
2013-09-28 21:31:00,55.4,52.9,30.00,West,270,0.0,2.0,91,0.00,,,0.01,meteohub,2013-09-29 02:31:00,
2013-09-28 21:36:00,55.0,52.7,30.00,West,270,0.0,0.0,92,0.00,,,0.01,meteohub,2013-09-29 02:36:00,
2013-09-28 21:41:00,55.2,53.2,30.00,South,180,0.0,0.0,93,0.00,,,0.01,meteohub,2013-09-29 02:41:00,
2013-09-28 21:47:00,55.0,52.7,30.01,South,180,0.0,0.0,92,0.00,,,0.01,meteohub,2013-09-29 02:47:00,
2013-09-28 21:52:00,54.9,52.9,30.00,South,180,0.0,0.0,93,0.00,,,0.01,meteohub,2013-09-29 02:52:00,
2013-09-28 21:57:00,54.9,52.9,30.01,North,0,0.0,0.0,93,0.00,,,0.01,meteohub,2013-09-29 02:57:00,
2013-09-28 22:02:00,55.0,53.4,30.01,North,0,0.0,0.0,94,0.00,,,0.01,meteohub,2013-09-29 03:02:00,
2013-09-28 22:07:00,55.0,53.4,30.01,North,0,0.0,0.0,94,0.00,,,0.01,meteohub,2013-09-29 03:07:00,
2013-09-28 22:12:00,54.9,52.9,30.01,SW,225,0.0,0.0,93,0.00,,,0.01,meteohub,2013-09-29 03:12:00,
2013-09-28 22:17:00,54.9,53.2,30.01,West,270,0.0,0.0,94,0.00,,,0.01,meteohub,2013-09-29 03:17:00,
2013-09-28 22:22:00,54.7,53.1,30.01,West,270,0.0,0.0,94,0.00,,,0.01,meteohub,2013-09-29 03:22:00,
2013-09-28 22:27:00,54.7,53.2,30.01,West,270,0.0,0.0,95,0.00,,,0.01,meteohub,2013-09-29 03:27:00,
2013-09-28 22:32:00,54.7,53.2,30.01,West,270,0.0,0.0,95,0.00,,,0.01,meteohub,2013-09-29 03:32:00,
2013-09-28 22:37:00,54.7,53.2,30.01,West,270,0.0,0.0,95,0.00,,,0.01,meteohub,2013-09-29 03:37:00,
2013-09-28 22:42:00,54.5,53.1,30.02,West,270,0.0,0.0,95,0.00,,,0.01,meteohub,2013-09-29 03:42:00,
2013-09-28 22:47:00,54.5,53.1,30.02,West,270,0.0,0.0,95,0.00,,,0.01,meteohub,2013-09-29 03:47:00,
2013-09-28 22:52:00,54.5,53.4,30.02,East,90,0.0,0.0,96,0.00,,,0.01,meteohub,2013-09-29 03:52:00,
2013-09-28 22:58:00,54.5,53.4,30.02,East,90,0.0,0.0,96,0.00,,,0.01,meteohub,2013-09-29 03:58:00,
2013-09-28 23:01:00,54.3,53.2,30.02,East,90,0.0,0.0,96,0.00,,,0.01,meteohub,2013-09-29 04:01:00,
2013-09-28 23:02:00,54.3,53.2,30.02,East,90,0.0,0.0,96,0.00,,,0.01,meteohub,2013-09-29 04:02:00,
2013-09-28 23:04:00,54.3,53.2,30.02,East,90,0.0,0.0,96,0.00,,,0.01,meteohub,2013-09-29 04:04:00,
2013-09-28 23:06:00,54.3,53.2,30.02,East,90,0.0,0.0,96,0.00,,,0.01,meteohub,2013-09-29 04:06:00,
2013-09-28 23:07:00,54.3,53.2,30.02,East,90,0.0,0.0,96,0.00,,,0.01,meteohub,2013-09-29 04:07:00,
2013-09-28 23:12:00,53.8,52.7,30.03,East,90,0.0,0.0,96,0.00,,,0.01,meteohub,2013-09-29 04:12:00,
2013-09-28 23:17:00,53.6,52.5,30.03,East,90,0.0,0.0,96,0.00,,,0.01,meteohub,2013-09-29 04:17:00,
2013-09-28 23:22:00,53.2,52.2,30.03,East,90,0.0,0.0,96,0.00,,,0.01,meteohub,2013-09-29 04:22:00,
2013-09-28 23:27:00,53.2,52.3,30.02,East,90,0.0,0.0,97,0.00,,,0.01,meteohub,2013-09-29 04:27:00,
2013-09-28 23:32:00,53.2,52.3,30.02,East,90,0.0,0.0,97,0.00,,,0.01,meteohub,2013-09-29 04:32:00,
2013-09-28 23:37:00,53.1,52.2,30.03,East,90,0.0,0.0,97,0.00,,,0.01,meteohub,2013-09-29 04:37:00,
2013-09-28 23:42:00,53.1,52.2,30.03,SW,225,0.0,0.0,97,0.00,,,0.01,meteohub,2013-09-29 04:42:00,
2013-09-28 23:47:00,53.1,52.2,30.02,WSW,248,1.0,0.0,97,0.00,,,0.01,meteohub,2013-09-29 04:47:00,
2013-09-28 23:52:00,54.0,53.4,30.02,West,270,1.0,1.0,98,0.00,,,0.01,meteohub,2013-09-29 04:52:00,
2013-09-28 23:57:00,54.7,54.3,30.03,West,270,0.0,1.0,99,0.00,,,0.01,meteohub,2013-09-29 04:57:00,